Location: Bottenau
(48.5138°N, 8.0462°E)
Time: 05:19:52
(UTC+00:00)

Cosmos 405 - Pass Details

Date: 18 April 2021
Orbit: 448 x 459 km, 81.3° (Epoch: 09 May)

Event Time Altitude Azimuth Distance (km) Brightness Sun altitude
Rises 19:44:31 0° 202° (SSW) 2,446 6.5 -12.9°
Reaches altitude 10° 19:46:37 10° 208° (SSW) 1,580 5.6 -13.1°
Maximum altitude 19:49:58 49° 285° (WNW) 597 3.9 -13.6°
Drops below altitude 10° 19:53:22 10° 1° (N) 1,601 6.2 -14.1°
Sets 19:55:31 0° 7° (N) 2,481 7.1 -14.3°
